Time,TemperatureF,DewpointF,PressureIn,WindDirection,WindDirectionDegrees,WindSpeedMPH,WindSpeedGustMPH,Humidity,HourlyPrecipIn,Conditions,Clouds,dailyrainin,SoftwareType,DateUTC
2013-06-11 00:05:00,56.8,47.9,29.96,WSW,248,3.0,4.0,72,0.00,,,0.00,Wunderground v.1.15,2013-06-11 07:05:00,
2013-06-11 00:11:00,56.7,47.8,29.96,NW,305,2.0,6.0,72,0.00,,,0.00,Wunderground v.1.15,2013-06-11 07:11:00,
2013-06-11 00:17:00,56.6,48.0,29.96,SW,234,2.0,4.0,73,0.00,,,0.00,Wunderground v.1.15,2013-06-11 07:17:00,
2013-06-11 00:22:00,56.5,47.9,29.95,SW,234,1.0,1.0,73,0.00,,,0.00,Wunderground v.1.15,2013-06-11 07:22:00,
2013-06-11 00:27:00,56.3,48.1,29.95,SW,234,0.0,1.0,74,0.00,,,0.00,Wunderground v.1.15,2013-06-11 07:27:00,
2013-06-11 00:33:00,56.2,48.0,29.95,SW,231,1.0,3.0,74,0.00,,,0.00,Wunderground v.1.15,2013-06-11 07:33:00,
2013-06-11 00:38:00,56.0,47.8,29.96,SW,234,2.0,8.0,74,0.00,,,0.00,Wunderground v.1.15,2013-06-11 07:38:00,
2013-06-11 00:43:00,55.8,47.3,29.96,WSW,239,4.0,4.0,73,0.00,,,0.00,Wunderground v.1.15,2013-06-11 07:43:00,
2013-06-11 00:49:00,55.7,47.5,29.96,WSW,239,3.0,4.0,74,0.00,,,0.00,Wunderground v.1.15,2013-06-11 07:49:00,
2013-06-11 00:54:00,55.7,47.9,29.96,West,272,2.0,4.0,75,0.00,,,0.00,Wunderground v.1.15,2013-06-11 07:54:00,
2013-06-11 01:00:00,55.6,47.8,29.96,WSW,255,3.0,9.0,75,0.00,,,0.00,Wunderground v.1.15,2013-06-11 08:00:00,
2013-06-11 01:07:00,55.5,47.7,29.96,WSW,238,4.0,7.0,75,0.00,,,0.00,Wunderground v.1.15,2013-06-11 08:07:00,
2013-06-11 01:13:00,55.5,47.7,29.96,SW,214,5.0,7.0,75,0.00,,,0.00,Wunderground v.1.15,2013-06-11 08:13:00,
2013-06-11 01:18:00,55.4,48.0,29.96,SW,228,3.0,7.0,76,0.00,,,0.00,Wunderground v.1.15,2013-06-11 08:18:00,
2013-06-11 01:23:00,55.4,48.0,29.96,West,263,2.0,6.0,76,0.00,,,0.00,Wunderground v.1.15,2013-06-11 08:23:00,
2013-06-11 01:29:00,55.4,48.0,29.96,WNW,284,2.0,6.0,76,0.00,,,0.00,Wunderground v.1.15,2013-06-11 08:29:00,
2013-06-11 01:34:00,55.3,48.2,29.96,WNW,289,4.0,4.0,77,0.00,,,0.00,Wunderground v.1.15,2013-06-11 08:34:00,
2013-06-11 01:40:00,55.3,48.2,29.96,WSW,250,2.0,4.0,77,0.00,,,0.00,Wunderground v.1.15,2013-06-11 08:40:00,
2013-06-11 01:46:00,55.2,47.8,29.96,SW,231,1.0,7.0,76,0.00,,,0.00,Wunderground v.1.15,2013-06-11 08:46:00,
2013-06-11 01:51:00,55.1,48.0,29.96,SW,219,2.0,7.0,77,0.00,,,0.00,Wunderground v.1.15,2013-06-11 08:51:00,
2013-06-11 01:57:00,55.0,47.6,29.96,SW,225,2.0,3.0,76,0.00,,,0.00,Wunderground v.1.15,2013-06-11 08:57:00,
2013-06-11 02:03:00,55.0,47.2,29.96,SW,236,3.0,7.0,75,0.00,,,0.00,Wunderground v.1.15,2013-06-11 09:03:00,
2013-06-11 02:08:00,54.8,47.4,29.96,WSW,240,4.0,7.0,76,0.00,,,0.00,Wunderground v.1.15,2013-06-11 09:08:00,
2013-06-11 02:14:00,54.8,47.0,29.96,West,277,4.0,7.0,75,0.00,,,0.00,Wunderground v.1.15,2013-06-11 09:14:00,
2013-06-11 02:19:00,54.7,46.9,29.96,SSW,193,4.0,11.0,75,0.00,,,0.00,Wunderground v.1.15,2013-06-11 09:19:00,
2013-06-11 02:25:00,54.6,46.8,29.96,WSW,246,5.0,7.0,75,0.00,,,0.00,Wunderground v.1.15,2013-06-11 09:25:00,
2013-06-11 02:30:00,54.5,46.7,29.96,SW,228,5.0,7.0,75,0.00,,,0.00,Wunderground v.1.15,2013-06-11 09:30:00,
2013-06-11 02:36:00,54.4,47.0,29.96,WSW,245,3.0,4.0,76,0.00,,,0.00,Wunderground v.1.15,2013-06-11 09:36:00,
2013-06-11 02:41:00,54.3,46.5,29.96,WSW,240,3.0,5.0,75,0.00,,,0.00,Wunderground v.1.15,2013-06-11 09:41:00,
2013-06-11 02:47:00,54.1,46.7,29.96,SW,221,2.0,3.0,76,0.00,,,0.00,Wunderground v.1.15,2013-06-11 09:47:00,
2013-06-11 02:53:00,54.1,47.0,29.96,SW,221,1.0,1.0,77,0.00,,,0.00,Wunderground v.1.15,2013-06-11 09:53:00,
2013-06-11 02:59:00,54.0,47.0,29.96,SW,229,1.0,6.0,77,0.00,,,0.00,Wunderground v.1.15,2013-06-11 09:59:00,
2013-06-11 03:04:00,53.9,46.9,29.97,West,269,2.0,4.0,77,0.00,,,0.00,Wunderground v.1.15,2013-06-11 10:04:00,
2013-06-11 03:10:00,53.9,46.9,29.97,WSW,248,3.0,4.0,77,0.00,,,0.00,Wunderground v.1.15,2013-06-11 10:10:00,
2013-06-11 03:15:00,53.8,46.1,29.97,ESE,111,3.0,3.0,75,0.00,,,0.00,Wunderground v.1.15,2013-06-11 10:15:00,
2013-06-11 03:21:00,53.7,46.3,29.97,East,101,1.0,3.0,76,0.00,,,0.00,Wunderground v.1.15,2013-06-11 10:21:00,
2013-06-11 03:26:00,53.6,46.6,29.97,NE,48,0.0,2.0,77,0.00,,,0.00,Wunderground v.1.15,2013-06-11 10:26:00,
2013-06-11 03:33:00,53.4,46.4,29.97,WNW,288,2.0,2.0,77,0.00,,,0.00,Wunderground v.1.15,2013-06-11 10:33:00,
2013-06-11 03:39:00,53.3,46.3,29.97,WSW,242,2.0,5.0,77,0.00,,,0.00,Wunderground v.1.15,2013-06-11 10:39:00,
2013-06-11 03:45:00,53.2,46.2,29.97,WSW,242,1.0,3.0,77,0.00,,,0.00,Wunderground v.1.15,2013-06-11 10:45:00,
2013-06-11 03:50:00,53.1,46.1,29.97,WSW,242,1.0,4.0,77,0.00,,,0.00,Wunderground v.1.15,2013-06-11 10:50:00,
2013-06-11 03:56:00,53.0,46.0,29.97,SSW,213,2.0,2.0,77,0.00,,,0.00,Wunderground v.1.15,2013-06-11 10:56:00,
2013-06-11 04:03:00,52.8,46.1,29.97,SSW,200,1.0,1.0,78,0.00,,,0.00,Wunderground v.1.15,2013-06-11 11:03:00,
2013-06-11 04:09:00,52.7,45.7,29.97,WSW,242,2.0,5.0,77,0.00,,,0.00,Wunderground v.1.15,2013-06-11 11:09:00,
2013-06-11 04:14:00,52.6,45.9,29.97,West,268,2.0,2.0,78,0.00,,,0.00,Wunderground v.1.15,2013-06-11 11:14:00,
2013-06-11 04:19:00,52.5,45.2,29.97,South,182,1.0,4.0,76,0.00,,,0.00,Wunderground v.1.15,2013-06-11 11:19:00,
2013-06-11 04:25:00,52.3,45.3,29.97,SW,231,1.0,5.0,77,0.00,,,0.00,Wunderground v.1.15,2013-06-11 11:25:00,
2013-06-11 04:30:00,52.3,46.0,29.98,ESE,122,2.0,5.0,79,0.00,,,0.00,Wunderground v.1.15,2013-06-11 11:30:00,
2013-06-11 04:36:00,52.1,45.8,29.98,West,275,1.0,3.0,79,0.00,,,0.00,Wunderground v.1.15,2013-06-11 11:36:00,
2013-06-11 04:43:00,52.0,45.7,29.98,WSW,238,1.0,3.0,79,0.00,,,0.00,Wunderground v.1.15,2013-06-11 11:43:00,
2013-06-11 04:48:00,51.9,45.3,29.98,SSE,157,0.0,3.0,78,0.00,,,0.00,Wunderground v.1.15,2013-06-11 11:48:00,
2013-06-11 04:53:00,51.8,45.8,29.98,ENE,59,1.0,1.0,80,0.00,,,0.00,Wunderground v.1.15,2013-06-11 11:53:00,
2013-06-11 04:59:00,51.6,45.6,29.98,WNW,299,1.0,4.0,80,0.00,,,0.00,Wunderground v.1.15,2013-06-11 11:59:00,
2013-06-11 05:04:00,51.5,45.9,29.98,NNE,13,0.0,2.0,81,0.00,,,0.00,Wunderground v.1.15,2013-06-11 12:04:00,
2013-06-11 05:10:00,51.5,45.9,29.98,WNW,294,1.0,5.0,81,0.00,,,0.00,Wunderground v.1.15,2013-06-11 12:10:00,
2013-06-11 05:16:00,51.3,45.7,29.98,WNW,295,0.0,1.0,81,0.00,,,0.00,Wunderground v.1.15,2013-06-11 12:16:00,
2013-06-11 05:21:00,51.2,45.2,29.98,North,9,0.0,4.0,80,0.00,,,0.00,Wunderground v.1.15,2013-06-11 12:21:00,
2013-06-11 05:27:00,51.0,45.4,29.98,ESE,112,1.0,4.0,81,0.00,,,0.00,Wunderground v.1.15,2013-06-11 12:27:00,
2013-06-11 05:32:00,50.9,45.3,29.98,WSW,242,1.0,1.0,81,0.00,,,0.00,Wunderground v.1.15,2013-06-11 12:32:00,
2013-06-11 05:38:00,50.8,46.8,29.98,West,261,1.0,5.0,86,0.00,,,0.00,Wunderground v.1.15,2013-06-11 12:38:00,
2013-06-11 05:43:00,50.7,46.4,29.98,West,261,1.0,1.0,85,0.00,,,0.00,Wunderground v.1.15,2013-06-11 12:43:00,
2013-06-11 05:48:00,50.5,45.8,29.98,West,261,0.0,4.0,84,0.00,,,0.00,Wunderground v.1.15,2013-06-11 12:48:00,
2013-06-11 05:54:00,50.3,46.0,29.99,SSW,209,0.0,1.0,85,0.00,,,0.00,Wunderground v.1.15,2013-06-11 12:54:00,
2013-06-11 05:59:00,50.3,46.0,29.99,East,96,0.0,1.0,85,0.00,,,0.00,Wunderground v.1.15,2013-06-11 12:59:00,
2013-06-11 06:05:00,50.2,45.6,29.99,WSW,248,1.0,2.0,84,0.00,,,0.00,Wunderground v.1.15,2013-06-11 13:05:00,
2013-06-11 06:10:00,50.1,45.5,29.99,WSW,243,2.0,5.0,84,0.00,,,0.00,Wunderground v.1.15,2013-06-11 13:10:00,
2013-06-11 06:16:00,50.1,45.5,29.99,SW,221,3.0,5.0,84,0.00,,,0.00,Wunderground v.1.15,2013-06-11 13:16:00,
2013-06-11 06:21:00,50.0,45.4,29.99,WSW,237,2.0,5.0,84,0.00,,,0.00,Wunderground v.1.15,2013-06-11 13:21:00,
2013-06-11 06:27:00,50.1,45.8,29.99,SSE,159,3.0,5.0,85,0.00,,,0.00,Wunderground v.1.15,2013-06-11 13:27:00,
2013-06-11 06:33:00,50.0,45.4,30.00,SSW,197,2.0,2.0,84,0.00,,,0.00,Wunderground v.1.15,2013-06-11 13:33:00,
2013-06-11 06:39:00,50.0,45.7,30.00,SW,217,1.0,3.0,85,0.00,,,0.00,Wunderground v.1.15,2013-06-11 13:39:00,
2013-06-11 06:44:00,50.0,45.7,30.00,SW,223,2.0,5.0,85,0.00,,,0.00,Wunderground v.1.15,2013-06-11 13:44:00,
2013-06-11 06:50:00,50.0,45.4,30.00,SW,236,2.0,6.0,84,0.00,,,0.00,Wunderground v.1.15,2013-06-11 13:50:00,
2013-06-11 06:55:00,50.1,45.5,30.00,East,84,1.0,4.0,84,0.00,,,0.00,Wunderground v.1.15,2013-06-11 13:55:00,
2013-06-11 07:00:00,50.2,45.2,30.00,SE,130,1.0,6.0,83,0.00,,,0.00,Wunderground v.1.15,2013-06-11 14:00:00,
2013-06-11 07:05:00,50.4,45.7,30.00,East,101,2.0,4.0,84,0.00,,,0.00,Wunderground v.1.15,2013-06-11 14:05:00,
2013-06-11 07:10:00,50.5,45.8,30.00,East,101,0.0,4.0,84,0.00,,,0.00,Wunderground v.1.15,2013-06-11 14:10:00,
2013-06-11 07:15:00,50.5,46.2,30.00,SW,231,0.0,0.0,85,0.00,,,0.00,Wunderground v.1.15,2013-06-11 14:15:00,
2013-06-11 07:21:00,50.5,45.8,30.00,SW,224,0.0,2.0,84,0.00,,,0.00,Wunderground v.1.15,2013-06-11 14:21:00,
2013-06-11 07:28:00,50.7,46.4,30.00,SW,214,1.0,7.0,85,0.00,,,0.00,Wunderground v.1.15,2013-06-11 14:28:00,
2013-06-11 07:33:00,51.0,46.6,30.00,SW,215,2.0,4.0,85,0.00,,,0.00,Wunderground v.1.15,2013-06-11 14:33:00,
2013-06-11 07:38:00,51.4,46.4,30.00,WSW,237,2.0,4.0,83,0.00,,,0.00,Wunderground v.1.15,2013-06-11 14:38:00,
2013-06-11 07:43:00,51.8,46.8,30.00,WSW,248,3.0,3.0,83,0.00,,,0.00,Wunderground v.1.15,2013-06-11 14:43:00,
2013-06-11 07:49:00,52.3,47.3,30.00,SSW,213,4.0,8.0,83,0.00,,,0.00,Wunderground v.1.15,2013-06-11 14:49:00,
2013-06-11 07:54:00,52.6,46.9,30.00,WSW,249,5.0,5.0,81,0.00,,,0.00,Wunderground v.1.15,2013-06-11 14:54:00,
2013-06-11 07:59:00,52.9,47.2,30.00,WSW,238,5.0,5.0,81,0.00,,,0.00,Wunderground v.1.15,2013-06-11 14:59:00,
2013-06-11 08:05:00,53.1,47.1,30.00,SW,232,4.0,5.0,80,0.00,,,0.00,Wunderground v.1.15,2013-06-11 15:05:00,
2013-06-11 08:10:00,53.3,47.3,30.00,WSW,255,3.0,6.0,80,0.00,,,0.00,Wunderground v.1.15,2013-06-11 15:10:00,
2013-06-11 08:16:00,53.5,46.8,30.00,SW,235,3.0,5.0,78,0.00,,,0.00,Wunderground v.1.15,2013-06-11 15:16:00,
2013-06-11 08:21:00,53.8,46.8,30.00,WNW,283,3.0,7.0,77,0.00,,,0.00,Wunderground v.1.15,2013-06-11 15:21:00,
2013-06-11 08:27:00,54.1,47.4,30.00,West,262,2.0,4.0,78,0.00,,,0.00,Wunderground v.1.15,2013-06-11 15:27:00,
2013-06-11 08:33:00,54.2,47.8,30.00,WSW,248,4.0,8.0,79,0.00,,,0.00,Wunderground v.1.15,2013-06-11 15:33:00,
2013-06-11 08:38:00,54.2,47.1,30.00,West,266,4.0,9.0,77,0.00,,,0.00,Wunderground v.1.15,2013-06-11 15:38:00,
2013-06-11 08:43:00,54.3,47.2,30.01,SW,234,3.0,3.0,77,0.00,,,0.00,Wunderground v.1.15,2013-06-11 15:43:00,
2013-06-11 08:48:00,54.4,47.0,30.01,SW,224,2.0,5.0,76,0.00,,,0.00,Wunderground v.1.15,2013-06-11 15:48:00,
2013-06-11 08:54:00,54.6,48.2,30.01,West,262,3.0,3.0,79,0.00,,,0.00,Wunderground v.1.15,2013-06-11 15:54:00,
2013-06-11 08:59:00,54.9,47.1,30.01,SW,216,3.0,4.0,75,0.00,,,0.00,Wunderground v.1.15,2013-06-11 15:59:00,
2013-06-11 09:05:00,55.3,47.2,30.01,SW,217,4.0,7.0,74,0.00,,,0.00,Wunderground v.1.15,2013-06-11 16:05:00,
2013-06-11 09:10:00,55.6,47.8,30.01,SSW,200,5.0,12.0,75,0.00,,,0.00,Wunderground v.1.15,2013-06-11 16:10:00,
2013-06-11 09:15:00,55.9,47.0,30.01,WSW,253,6.0,12.0,72,0.00,,,0.00,Wunderground v.1.15,2013-06-11 16:15:00,
2013-06-11 09:21:00,56.3,48.1,30.01,WSW,246,5.0,12.0,74,0.00,,,0.00,Wunderground v.1.15,2013-06-11 16:21:00,
2013-06-11 09:28:00,56.7,47.8,30.01,WSW,245,3.0,5.0,72,0.00,,,0.00,Wunderground v.1.15,2013-06-11 16:28:00,
2013-06-11 09:33:00,57.0,46.9,30.01,SW,227,3.0,3.0,69,0.00,,,0.00,Wunderground v.1.15,2013-06-11 16:33:00,
2013-06-11 09:38:00,57.3,48.7,30.01,SSW,213,3.0,4.0,73,0.00,,,0.00,Wunderground v.1.15,2013-06-11 16:38:00,
2013-06-11 09:43:00,57.5,47.8,30.02,SW,235,3.0,8.0,70,0.00,,,0.00,Wunderground v.1.15,2013-06-11 16:43:00,
2013-06-11 09:49:00,57.5,47.4,30.02,ESE,121,5.0,8.0,69,0.00,,,0.00,Wunderground v.1.15,2013-06-11 16:49:00,
2013-06-11 09:54:00,57.5,47.8,30.02,WSW,250,4.0,9.0,70,0.00,,,0.00,Wunderground v.1.15,2013-06-11 16:54:00,
2013-06-11 09:59:00,57.6,48.3,30.02,WSW,252,3.0,9.0,71,0.00,,,0.00,Wunderground v.1.15,2013-06-11 16:59:00,
2013-06-11 10:05:00,57.6,47.9,30.02,SW,228,3.0,6.0,70,0.00,,,0.00,Wunderground v.1.15,2013-06-11 17:05:00,
2013-06-11 10:11:00,57.5,47.8,30.02,SSW,201,2.0,6.0,70,0.00,,,0.00,Wunderground v.1.15,2013-06-11 17:11:00,
2013-06-11 10:16:00,57.7,47.6,30.02,SW,223,1.0,7.0,69,0.00,,,0.00,Wunderground v.1.15,2013-06-11 17:16:00,
2013-06-11 10:22:00,57.7,47.2,30.02,West,266,2.0,3.0,68,0.00,,,0.00,Wunderground v.1.15,2013-06-11 17:22:00,
2013-06-11 10:28:00,57.4,46.9,30.02,South,182,2.0,5.0,68,0.00,,,0.00,Wunderground v.1.15,2013-06-11 17:28:00,
2013-06-11 10:33:00,57.0,47.3,30.02,SW,232,2.0,3.0,70,0.00,,,0.00,Wunderground v.1.15,2013-06-11 17:33:00,
2013-06-11 10:38:00,56.8,48.6,30.03,SW,232,2.0,3.0,74,0.00,,,0.00,Wunderground v.1.15,2013-06-11 17:38:00,
2013-06-11 10:43:00,56.6,47.7,30.03,SW,233,2.0,2.0,72,0.00,,,0.00,Wunderground v.1.15,2013-06-11 17:43:00,
2013-06-11 10:49:00,56.5,47.2,30.03,SW,234,2.0,3.0,71,0.00,,,0.00,Wunderground v.1.15,2013-06-11 17:49:00,
2013-06-11 10:54:00,56.5,47.2,30.03,SW,234,2.0,2.0,71,0.00,,,0.00,Wunderground v.1.15,2013-06-11 17:54:00,
2013-06-11 11:00:00,57.0,48.4,30.02,SW,224,1.0,6.0,73,0.00,,,0.00,Wunderground v.1.15,2013-06-11 18:00:00,
2013-06-11 11:05:00,57.7,48.7,30.03,South,180,1.0,2.0,72,0.00,,,0.00,Wunderground v.1.15,2013-06-11 18:05:00,
2013-06-11 11:13:00,58.8,49.0,30.03,West,271,1.0,1.0,70,0.00,,,0.00,Wunderground v.1.15,2013-06-11 18:13:00,
2013-06-11 11:18:00,59.6,48.2,30.03,SSW,203,2.0,7.0,66,0.00,,,0.00,Wunderground v.1.15,2013-06-11 18:18:00,
2013-06-11 11:23:00,60.0,47.4,30.03,SSW,202,2.0,2.0,63,0.00,,,0.00,Wunderground v.1.15,2013-06-11 18:23:00,
2013-06-11 11:29:00,60.4,48.2,30.03,SW,224,1.0,3.0,64,0.00,,,0.00,Wunderground v.1.15,2013-06-11 18:29:00,
2013-06-11 11:34:00,61.4,49.9,30.03,SE,136,1.0,2.0,66,0.00,,,0.00,Wunderground v.1.15,2013-06-11 18:34:00,
2013-06-11 11:40:00,62.5,50.2,30.03,West,269,2.0,7.0,64,0.00,,,0.00,Wunderground v.1.15,2013-06-11 18:40:00,
2013-06-11 11:45:00,63.9,51.1,30.03,WSW,258,2.0,4.0,63,0.00,,,0.00,Wunderground v.1.15,2013-06-11 18:45:00,
2013-06-11 11:51:00,65.3,52.8,30.03,SW,225,2.0,9.0,64,0.00,,,0.00,Wunderground v.1.15,2013-06-11 18:51:00,
2013-06-11 11:56:00,65.9,50.7,30.03,SW,223,4.0,7.0,58,0.00,,,0.00,Wunderground v.1.15,2013-06-11 18:56:00,
2013-06-11 12:01:00,65.9,48.8,30.03,South,188,4.0,7.0,54,0.00,,,0.00,Wunderground v.1.15,2013-06-11 19:01:00,
2013-06-11 12:07:00,65.1,47.0,30.03,ESE,107,2.0,5.0,52,0.00,,,0.00,Wunderground v.1.15,2013-06-11 19:07:00,
2013-06-11 12:13:00,64.2,48.6,30.03,SE,146,1.0,1.0,57,0.00,,,0.00,Wunderground v.1.15,2013-06-11 19:13:00,
2013-06-11 12:18:00,63.8,49.6,30.03,SW,234,1.0,4.0,60,0.00,,,0.00,Wunderground v.1.15,2013-06-11 19:18:00,
2013-06-11 12:23:00,63.5,48.0,30.03,West,271,2.0,4.0,57,0.00,,,0.00,Wunderground v.1.15,2013-06-11 19:23:00,
2013-06-11 12:28:00,63.4,47.9,30.03,WSW,254,1.0,4.0,57,0.00,,,0.00,Wunderground v.1.15,2013-06-11 19:28:00,
2013-06-11 12:34:00,63.2,48.2,30.03,SSW,211,2.0,2.0,58,0.00,,,0.00,Wunderground v.1.15,2013-06-11 19:34:00,
2013-06-11 12:39:00,63.3,49.6,30.03,WSW,242,2.0,3.0,61,0.00,,,0.00,Wunderground v.1.15,2013-06-11 19:39:00,
2013-06-11 12:44:00,63.4,48.4,30.03,SSE,157,3.0,5.0,58,0.00,,,0.00,Wunderground v.1.15,2013-06-11 19:44:00,
2013-06-11 12:50:00,63.2,47.7,30.04,WSW,246,2.0,5.0,57,0.00,,,0.00,Wunderground v.1.15,2013-06-11 19:50:00,
2013-06-11 12:56:00,62.8,48.3,30.04,SW,220,3.0,7.0,59,0.00,,,0.00,Wunderground v.1.15,2013-06-11 19:56:00,
2013-06-11 13:01:00,63.2,49.5,30.03,SSW,205,4.0,7.0,61,0.00,,,0.00,Wunderground v.1.15,2013-06-11 20:01:00,
2013-06-11 13:08:00,64.4,49.8,30.03,South,187,4.0,8.0,59,0.00,,,0.00,Wunderground v.1.15,2013-06-11 20:08:00,
2013-06-11 13:13:00,65.4,45.7,30.03,SSW,209,5.0,5.0,49,0.00,,,0.00,Wunderground v.1.15,2013-06-11 20:13:00,
2013-06-11 13:19:00,64.9,48.8,30.03,WSW,252,5.0,6.0,56,0.00,,,0.00,Wunderground v.1.15,2013-06-11 20:19:00,
2013-06-11 13:24:00,65.4,48.8,30.03,SW,221,4.0,7.0,55,0.00,,,0.00,Wunderground v.1.15,2013-06-11 20:24:00,
2013-06-11 13:29:00,65.8,49.2,30.03,WSW,250,5.0,7.0,55,0.00,,,0.00,Wunderground v.1.15,2013-06-11 20:29:00,
2013-06-11 13:35:00,66.4,47.2,30.04,West,267,6.0,8.0,50,0.00,,,0.00,Wunderground v.1.15,2013-06-11 20:35:00,
2013-06-11 13:40:00,66.8,49.1,30.04,SSW,210,5.0,9.0,53,0.00,,,0.00,Wunderground v.1.15,2013-06-11 20:40:00,
2013-06-11 13:46:00,66.7,48.5,30.03,West,271,6.0,11.0,52,0.00,,,0.00,Wunderground v.1.15,2013-06-11 20:46:00,
2013-06-11 13:51:00,66.7,48.0,30.04,SW,234,6.0,11.0,51,0.00,,,0.00,Wunderground v.1.15,2013-06-11 20:51:00,
2013-06-11 13:56:00,66.8,50.6,30.04,SW,217,4.0,5.0,56,0.00,,,0.00,Wunderground v.1.15,2013-06-11 20:56:00,
2013-06-11 14:01:00,67.4,48.6,30.03,NW,319,4.0,7.0,51,0.00,,,0.00,Wunderground v.1.15,2013-06-11 21:01:00,
2013-06-11 14:06:00,67.4,49.2,30.04,SW,223,6.0,8.0,52,0.00,,,0.00,Wunderground v.1.15,2013-06-11 21:06:00,
2013-06-11 14:12:00,67.2,49.5,30.04,SSW,211,7.0,7.0,53,0.00,,,0.00,Wunderground v.1.15,2013-06-11 21:12:00,
2013-06-11 14:17:00,68.0,49.2,30.04,SW,220,5.0,7.0,51,0.00,,,0.00,Wunderground v.1.15,2013-06-11 21:17:00,
2013-06-11 14:23:00,68.5,49.7,30.04,West,262,5.0,7.0,51,0.00,,,0.00,Wunderground v.1.15,2013-06-11 21:23:00,
2013-06-11 14:28:00,69.5,48.9,30.04,SW,229,8.0,13.0,48,0.00,,,0.00,Wunderground v.1.15,2013-06-11 21:28:00,
2013-06-11 14:33:00,70.0,47.1,30.04,West,270,8.0,11.0,44,0.00,,,0.00,Wunderground v.1.15,2013-06-11 21:33:00,
2013-06-11 14:39:00,69.9,48.7,30.04,WSW,241,9.0,13.0,47,0.00,,,0.00,Wunderground v.1.15,2013-06-11 21:39:00,
2013-06-11 14:44:00,70.0,48.8,30.04,SW,217,7.0,8.0,47,0.00,,,0.00,Wunderground v.1.15,2013-06-11 21:44:00,
2013-06-11 14:49:00,70.4,47.4,30.04,SW,229,5.0,8.0,44,0.00,,,0.00,Wunderground v.1.15,2013-06-11 21:49:00,
2013-06-11 14:55:00,70.6,49.4,30.04,WSW,256,3.0,4.0,47,0.00,,,0.00,Wunderground v.1.15,2013-06-11 21:55:00,
2013-06-11 15:01:00,71.5,51.3,30.04,West,270,4.0,11.0,49,0.00,,,0.00,Wunderground v.1.15,2013-06-11 22:01:00,
2013-06-11 15:07:00,72.6,50.0,30.04,WSW,250,8.0,12.0,45,0.00,,,0.00,Wunderground v.1.15,2013-06-11 22:07:00,
2013-06-11 15:13:00,72.6,49.4,30.04,WSW,243,9.0,9.0,44,0.00,,,0.00,Wunderground v.1.15,2013-06-11 22:13:00,
2013-06-11 15:18:00,72.2,49.7,30.04,South,178,8.0,9.0,45,0.00,,,0.00,Wunderground v.1.15,2013-06-11 22:18:00,
2013-06-11 15:23:00,71.6,47.3,30.04,SW,218,6.0,6.0,42,0.00,,,0.00,Wunderground v.1.15,2013-06-11 22:23:00,
2013-06-11 15:29:00,70.9,49.1,30.04,SW,214,6.0,12.0,46,0.00,,,0.00,Wunderground v.1.15,2013-06-11 22:29:00,
2013-06-11 15:35:00,70.7,50.0,30.04,WSW,254,6.0,12.0,48,0.00,,,0.00,Wunderground v.1.15,2013-06-11 22:35:00,
2013-06-11 15:40:00,71.0,49.2,30.04,West,266,6.0,12.0,46,0.00,,,0.00,Wunderground v.1.15,2013-06-11 22:40:00,
2013-06-11 15:46:00,70.9,46.0,30.04,WSW,249,8.0,17.0,41,0.00,,,0.00,Wunderground v.1.15,2013-06-11 22:46:00,
2013-06-11 15:51:00,70.9,49.7,30.05,SW,215,9.0,17.0,47,0.00,,,0.00,Wunderground v.1.15,2013-06-11 22:51:00,
2013-06-11 15:56:00,71.3,48.9,30.04,West,281,8.0,12.0,45,0.00,,,0.00,Wunderground v.1.15,2013-06-11 22:56:00,
2013-06-11 16:02:00,71.5,47.8,30.05,SW,232,8.0,8.0,43,0.00,,,0.00,Wunderground v.1.15,2013-06-11 23:02:00,
2013-06-11 16:07:00,71.7,48.0,30.05,SW,231,8.0,12.0,43,0.00,,,0.00,Wunderground v.1.15,2013-06-11 23:07:00,
2013-06-11 16:12:00,72.0,49.5,30.05,West,262,7.0,9.0,45,0.00,,,0.00,Wunderground v.1.15,2013-06-11 23:12:00,
2013-06-11 16:18:00,72.2,46.5,30.05,WSW,240,7.0,16.0,40,0.00,,,0.00,Wunderground v.1.15,2013-06-11 23:18:00,
2013-06-11 16:23:00,71.4,47.1,30.05,West,275,7.0,8.0,42,0.00,,,0.00,Wunderground v.1.15,2013-06-11 23:23:00,
2013-06-11 16:29:00,71.4,48.9,30.05,WSW,247,7.0,12.0,45,0.00,,,0.00,Wunderground v.1.15,2013-06-11 23:29:00,
2013-06-11 16:35:00,71.5,48.4,30.05,WSW,245,7.0,8.0,44,0.00,,,0.00,Wunderground v.1.15,2013-06-11 23:35:00,
2013-06-11 16:40:00,70.9,47.9,30.05,SW,236,7.0,13.0,44,0.00,,,0.00,Wunderground v.1.15,2013-06-11 23:40:00,
2013-06-11 16:47:00,70.7,47.7,30.05,West,265,7.0,10.0,44,0.00,,,0.00,Wunderground v.1.15,2013-06-11 23:47:00,
2013-06-11 16:52:00,70.6,48.8,30.05,NW,313,7.0,7.0,46,0.00,,,0.00,Wunderground v.1.15,2013-06-11 23:52:00,
2013-06-11 16:58:00,70.9,49.7,30.05,WSW,238,7.0,12.0,47,0.00,,,0.00,Wunderground v.1.15,2013-06-11 23:58:00,
2013-06-11 17:04:00,70.4,48.0,30.05,SW,215,7.0,15.0,45,0.00,,,0.00,Wunderground v.1.15,2013-06-12 00:04:00,
2013-06-11 17:10:00,69.3,48.2,30.05,West,269,8.0,15.0,47,0.00,,,0.00,Wunderground v.1.15,2013-06-12 00:10:00,
2013-06-11 17:15:00,69.0,47.9,30.05,West,273,8.0,10.0,47,0.00,,,0.00,Wunderground v.1.15,2013-06-12 00:15:00,
2013-06-11 17:20:00,68.9,47.8,30.05,WSW,253,8.0,14.0,47,0.00,,,0.00,Wunderground v.1.15,2013-06-12 00:20:00,
2013-06-11 17:26:00,68.5,48.0,30.05,WSW,245,6.0,8.0,48,0.00,,,0.00,Wunderground v.1.15,2013-06-12 00:26:00,
2013-06-11 17:32:00,68.1,49.8,30.05,WSW,238,4.0,4.0,52,0.00,,,0.00,Wunderground v.1.15,2013-06-12 00:32:00,
2013-06-11 17:37:00,67.1,50.4,30.05,SW,231,3.0,9.0,55,0.00,,,0.00,Wunderground v.1.15,2013-06-12 00:37:00,
2013-06-11 17:43:00,66.1,50.9,30.05,SW,235,4.0,9.0,58,0.00,,,0.00,Wunderground v.1.15,2013-06-12 00:43:00,
2013-06-11 17:48:00,65.7,50.0,30.05,WSW,252,4.0,9.0,57,0.00,,,0.00,Wunderground v.1.15,2013-06-12 00:48:00,
2013-06-11 17:53:00,65.4,47.3,30.05,West,262,4.0,12.0,52,0.00,,,0.00,Wunderground v.1.15,2013-06-12 00:53:00,
2013-06-11 17:59:00,65.2,47.6,30.05,WSW,247,7.0,12.0,53,0.00,,,0.00,Wunderground v.1.15,2013-06-12 00:59:00,
2013-06-11 18:04:00,65.0,45.9,30.05,WSW,244,6.0,7.0,50,0.00,,,0.00,Wunderground v.1.15,2013-06-12 01:04:00,
2013-06-11 18:10:00,64.7,45.6,30.06,SW,232,7.0,11.0,50,0.00,,,0.00,Wunderground v.1.15,2013-06-12 01:10:00,
2013-06-11 18:15:00,64.3,46.8,30.06,WSW,246,7.0,8.0,53,0.00,,,0.00,Wunderground v.1.15,2013-06-12 01:15:00,
2013-06-11 18:22:00,63.9,45.9,30.06,WSW,246,8.0,15.0,52,0.00,,,0.00,Wunderground v.1.15,2013-06-12 01:22:00,
2013-06-11 18:27:00,63.7,47.7,30.06,SW,236,6.0,8.0,56,0.00,,,0.00,Wunderground v.1.15,2013-06-12 01:27:00,
2013-06-11 18:32:00,63.6,48.1,30.06,WSW,246,4.0,7.0,57,0.00,,,0.00,Wunderground v.1.15,2013-06-12 01:32:00,
2013-06-11 18:38:00,63.2,45.3,30.06,SW,236,4.0,14.0,52,0.00,,,0.00,Wunderground v.1.15,2013-06-12 01:38:00,
2013-06-11 18:43:00,63.0,46.1,30.06,WSW,238,5.0,10.0,54,0.00,,,0.00,Wunderground v.1.15,2013-06-12 01:43:00,
2013-06-11 18:49:00,62.9,48.3,30.06,SSW,193,5.0,10.0,59,0.00,,,0.00,Wunderground v.1.15,2013-06-12 01:49:00,
2013-06-11 18:54:00,62.5,46.6,30.06,SW,234,5.0,8.0,56,0.00,,,0.00,Wunderground v.1.15,2013-06-12 01:54:00,
2013-06-11 19:00:00,62.3,44.4,30.06,West,276,6.0,12.0,52,0.00,,,0.00,Wunderground v.1.15,2013-06-12 02:00:00,
2013-06-11 19:05:00,62.1,45.7,30.06,SW,234,7.0,11.0,55,0.00,,,0.00,Wunderground v.1.15,2013-06-12 02:05:00,
2013-06-11 19:11:00,61.8,45.5,30.06,WSW,251,6.0,6.0,55,0.00,,,0.00,Wunderground v.1.15,2013-06-12 02:11:00,
2013-06-11 19:17:00,61.6,45.7,30.07,WSW,254,6.0,10.0,56,0.00,,,0.00,Wunderground v.1.15,2013-06-12 02:17:00,
2013-06-11 19:22:00,61.5,45.2,30.07,WSW,237,5.0,10.0,55,0.00,,,0.00,Wunderground v.1.15,2013-06-12 02:22:00,
2013-06-11 19:27:00,61.4,45.1,30.07,SSW,213,5.0,12.0,55,0.00,,,0.00,Wunderground v.1.15,2013-06-12 02:27:00,
2013-06-11 19:32:00,61.3,45.9,30.07,West,259,7.0,7.0,57,0.00,,,0.00,Wunderground v.1.15,2013-06-12 02:32:00,
2013-06-11 19:38:00,61.2,45.4,30.07,West,271,6.0,9.0,56,0.00,,,0.00,Wunderground v.1.15,2013-06-12 02:38:00,
2013-06-11 19:43:00,61.1,45.7,30.07,West,267,7.0,8.0,57,0.00,,,0.00,Wunderground v.1.15,2013-06-12 02:43:00,
2013-06-11 19:48:00,60.9,45.6,30.07,WSW,257,6.0,8.0,57,0.00,,,0.00,Wunderground v.1.15,2013-06-12 02:48:00,
2013-06-11 19:54:00,60.8,46.4,30.08,WSW,240,4.0,6.0,59,0.00,,,0.00,Wunderground v.1.15,2013-06-12 02:54:00,
2013-06-11 19:59:00,60.6,46.6,30.08,WSW,255,3.0,6.0,60,0.00,,,0.00,Wunderground v.1.15,2013-06-12 02:59:00,
2013-06-11 20:04:00,60.4,46.4,30.08,SSW,207,2.0,4.0,60,0.00,,,0.00,Wunderground v.1.15,2013-06-12 03:04:00,
2013-06-11 20:09:00,60.1,47.0,30.08,SW,229,3.0,4.0,62,0.00,,,0.00,Wunderground v.1.15,2013-06-12 03:09:00,
2013-06-11 20:15:00,59.7,46.7,30.08,SW,233,4.0,11.0,62,0.00,,,0.00,Wunderground v.1.15,2013-06-12 03:15:00,
2013-06-11 20:20:00,59.5,46.5,30.08,West,269,5.0,11.0,62,0.00,,,0.00,Wunderground v.1.15,2013-06-12 03:20:00,
2013-06-11 20:27:00,59.1,46.1,30.08,WSW,242,3.0,13.0,62,0.00,,,0.00,Wunderground v.1.15,2013-06-12 03:27:00,
2013-06-11 20:33:00,58.8,46.2,30.08,WSW,243,4.0,6.0,63,0.00,,,0.00,Wunderground v.1.15,2013-06-12 03:33:00,
2013-06-11 20:38:00,58.5,45.5,30.08,SW,222,5.0,10.0,62,0.00,,,0.00,Wunderground v.1.15,2013-06-12 03:38:00,
2013-06-11 20:43:00,58.1,45.1,30.09,SW,231,5.0,8.0,62,0.00,,,0.00,Wunderground v.1.15,2013-06-12 03:43:00,
2013-06-11 20:49:00,57.8,44.9,30.08,SW,223,5.0,8.0,62,0.00,,,0.00,Wunderground v.1.15,2013-06-12 03:49:00,
2013-06-11 20:54:00,57.6,45.5,30.09,SW,227,4.0,8.0,64,0.00,,,0.00,Wunderground v.1.15,2013-06-12 03:54:00,
2013-06-11 21:00:00,57.3,45.6,30.09,SW,217,3.0,10.0,65,0.00,,,0.00,Wunderground v.1.15,2013-06-12 04:00:00,
2013-06-11 21:02:00,57.2,45.9,30.09,WSW,239,3.0,6.0,66,0.00,,,0.00,Wunderground v.1.15,2013-06-12 04:02:00,
2013-06-11 21:03:00,57.2,45.5,30.09,West,267,3.0,7.0,65,0.00,,,0.00,Wunderground v.1.15,2013-06-12 04:03:00,
2013-06-11 21:08:00,57.0,45.3,30.09,SW,227,3.0,7.0,65,0.00,,,0.00,Wunderground v.1.15,2013-06-12 04:08:00,
2013-06-11 21:09:00,56.9,45.7,30.09,SW,227,3.0,7.0,66,0.00,,,0.00,Wunderground v.1.15,2013-06-12 04:09:00,
2013-06-11 21:14:00,56.7,45.9,30.09,SSW,213,3.0,4.0,67,0.00,,,0.00,Wunderground v.1.15,2013-06-12 04:14:00,
2013-06-11 21:20:00,56.4,45.6,30.10,SW,229,5.0,13.0,67,0.00,,,0.00,Wunderground v.1.15,2013-06-12 04:20:00,
2013-06-11 21:25:00,56.3,45.5,30.10,SW,232,6.0,12.0,67,0.00,,,0.00,Wunderground v.1.15,2013-06-12 04:25:00,
2013-06-11 21:32:00,56.1,45.3,30.10,SW,234,4.0,4.0,67,0.00,,,0.00,Wunderground v.1.15,2013-06-12 04:32:00,
2013-06-11 21:37:00,56.0,45.6,30.11,SW,225,3.0,5.0,68,0.00,,,0.00,Wunderground v.1.15,2013-06-12 04:37:00,
2013-06-11 21:43:00,55.9,46.3,30.11,SW,225,3.0,3.0,70,0.00,,,0.00,Wunderground v.1.15,2013-06-12 04:43:00,
2013-06-11 21:48:00,55.8,46.2,30.11,SW,219,3.0,5.0,70,0.00,,,0.00,Wunderground v.1.15,2013-06-12 04:48:00,
2013-06-11 21:54:00,55.6,46.0,30.11,SW,225,4.0,6.0,70,0.00,,,0.00,Wunderground v.1.15,2013-06-12 04:54:00,
2013-06-11 21:59:00,55.6,46.3,30.11,WSW,253,3.0,6.0,71,0.00,,,0.00,Wunderground v.1.15,2013-06-12 04:59:00,
2013-06-11 22:04:00,55.5,46.2,30.12,WSW,252,2.0,3.0,71,0.00,,,0.00,Wunderground v.1.15,2013-06-12 05:04:00,
2013-06-11 22:10:00,55.4,46.2,30.12,WSW,240,1.0,4.0,71,0.00,,,0.00,Wunderground v.1.15,2013-06-12 05:10:00,
2013-06-11 22:17:00,55.2,46.3,30.12,SW,235,1.0,3.0,72,0.00,,,0.00,Wunderground v.1.15,2013-06-12 05:17:00,
2013-06-11 22:22:00,55.1,46.2,30.12,SW,235,1.0,1.0,72,0.00,,,0.00,Wunderground v.1.15,2013-06-12 05:22:00,
2013-06-11 22:28:00,54.9,46.0,30.12,SW,217,1.0,2.0,72,0.00,,,0.00,Wunderground v.1.15,2013-06-12 05:28:00,
2013-06-11 22:34:00,54.7,45.5,30.12,WSW,240,1.0,5.0,71,0.00,,,0.00,Wunderground v.1.15,2013-06-12 05:34:00,
2013-06-11 22:39:00,54.6,45.8,30.12,South,172,2.0,5.0,72,0.00,,,0.00,Wunderground v.1.15,2013-06-12 05:39:00,
2013-06-11 22:44:00,54.4,45.9,30.12,SW,225,2.0,3.0,73,0.00,,,0.00,Wunderground v.1.15,2013-06-12 05:44:00,
2013-06-11 22:50:00,54.1,45.6,30.12,SW,229,2.0,3.0,73,0.00,,,0.00,Wunderground v.1.15,2013-06-12 05:50:00,
2013-06-11 22:57:00,53.9,45.8,30.12,WSW,243,2.0,7.0,74,0.00,,,0.00,Wunderground v.1.15,2013-06-12 05:57:00,
2013-06-11 23:02:00,53.7,46.0,30.12,SW,221,2.0,4.0,75,0.00,,,0.00,Wunderground v.1.15,2013-06-12 06:02:00,
2013-06-11 23:07:00,53.5,45.8,30.12,SW,225,2.0,5.0,75,0.00,,,0.00,Wunderground v.1.15,2013-06-12 06:07:00,
2013-06-11 23:13:00,53.4,46.0,30.12,SW,230,1.0,2.0,76,0.00,,,0.00,Wunderground v.1.15,2013-06-12 06:13:00,
2013-06-11 23:18:00,53.2,45.8,30.12,SW,232,1.0,3.0,76,0.00,,,0.00,Wunderground v.1.15,2013-06-12 06:18:00,
2013-06-11 23:23:00,53.1,46.1,30.12,SSW,200,1.0,5.0,77,0.00,,,0.00,Wunderground v.1.15,2013-06-12 06:23:00,
2013-06-11 23:29:00,53.0,46.3,30.12,SW,234,2.0,7.0,78,0.00,,,0.00,Wunderground v.1.15,2013-06-12 06:29:00,
2013-06-11 23:35:00,53.1,46.4,30.12,WSW,243,2.0,4.0,78,0.00,,,0.00,Wunderground v.1.15,2013-06-12 06:35:00,
2013-06-11 23:41:00,53.1,46.4,30.12,SW,217,2.0,3.0,78,0.00,,,0.00,Wunderground v.1.15,2013-06-12 06:41:00,
2013-06-11 23:47:00,53.0,46.3,30.12,SW,227,3.0,5.0,78,0.00,,,0.00,Wunderground v.1.15,2013-06-12 06:47:00,
2013-06-11 23:52:00,53.0,46.7,30.12,SW,225,2.0,5.0,79,0.00,,,0.00,Wunderground v.1.15,2013-06-12 06:52:00,
2013-06-11 23:58:00,52.9,46.6,30.12,WSW,238,2.0,5.0,79,0.00,,,0.00,Wunderground v.1.15,2013-06-12 06:58:00,